Weather History for Moses Lake, WA

Change the Weather History Date:

Saturday, January 5, 2013

  Actual Average Record
Temperature  
Mean Temperature 30 °F 28 °F  
Max Temperature 33 °F 35 °F 50 °F (2012)
Min Temperature 27 °F 22 °F -15 °F (2004)
Degree Days  
Heating Degree Days 35 37  
Month to date heating degree days 194 185  
Since 1 July heating degree days 2402 2772  
Cooling Degree Days 0 0  
Month to date cooling degree days 0 0  
Year to date cooling degree days 0 0  
Moisture  
Dew Point 24 °F    
Average Humidity 82    
Maximum Humidity 92    
Minimum Humidity 72    
Precipitation  
Precipitation 0.02 in 0.05 in 0.20 in (1980)
Month to date precipitation 0.02 0.26  
Year to date precipitation 0.02 0.26  
Sea Level Pressure  
Sea Level Pressure 30.33 in    
Wind  
Wind Speed 6 mph (NE)    
Max Wind Speed 12 mph    
Max Gust Speed 14 mph    
Visibility 6 miles    
Events Snow    
T = Trace of Precipitation, MM = Missing Value Source: NWS Daily Summary

Daily Weather History Graph

Daily Weather History Graph

Search for Another Location

Airport:

Trip Planner

Search our weather history database for the weather conditions in past years. The results will help you decide how hot, cold, wet, or windy it might be!

Date:

Astronomy

Jan. 05, 2013 Rise Set
Actual Time 7:43 AM PST 4:22 PM PST
Civil Twilight 7:08 AM PST 4:57 PM PST
Nautical Twilight 6:29 AM PST 5:36 PM PST
Astronomical Twilight 5:52 AM PST 6:13 PM PST
Moon 12:41 AM PST (1/5) 11:27 AM PST (1/5)
Length of Visible Light 9h 49m
Length of Day
8h 39m
Last Quarter, 43% of the Moon is Illuminated
Jan 5
Last Quarter
Jan 11
New
Jan 18
First Quarter
Jan 26
Full
Feb 3
Last Quarter

Hourly Weather History & Observations

Time (PST) Temp. Windchill Dew Point Humidity Pressure Visibility Wind Dir Wind Speed Gust Speed Precip Events Conditions
12:44 AM 28.4 °F 20.4 °F 23.0 °F 80% 30.39 in 10.0 mi NNW 8.1 mph - N/A   Overcast
12:52 AM 28.0 °F 19.3 °F 23.0 °F 81% 30.44 in 10.0 mi NNW 9.2 mph - N/A   Overcast
1:02 AM 28.4 °F 19.7 °F 23.0 °F 80% 30.39 in 10.0 mi NNW 9.2 mph - N/A   Overcast
1:52 AM 28.9 °F 20.4 °F 23.0 °F 78% 30.43 in 10.0 mi North 9.2 mph - N/A   Overcast
2:52 AM 28.9 °F 21.1 °F 24.1 °F 82% 30.42 in 10.0 mi North 8.1 mph - N/A   Overcast
3:52 AM 28.9 °F 20.4 °F 23.0 °F 78% 30.41 in 10.0 mi North 9.2 mph - N/A   Overcast
4:52 AM 28.9 °F 21.1 °F 23.0 °F 78% 30.40 in 10.0 mi NNW 8.1 mph - N/A   Overcast
5:52 AM 30.0 °F 21.7 °F 24.1 °F 79% 30.40 in 10.0 mi North 9.2 mph - N/A   Overcast
6:52 AM 28.9 °F 21.1 °F 23.0 °F 78% 30.39 in 10.0 mi NNW 8.1 mph - N/A   Overcast
7:12 AM 28.4 °F 21.2 °F 23.0 °F 80% 30.34 in 10.0 mi NNW 6.9 mph - N/A   Overcast
7:52 AM 30.0 °F 22.4 °F 24.1 °F 79% 30.38 in 10.0 mi North 8.1 mph - N/A   Overcast
8:52 AM 30.9 °F 23.5 °F 25.0 °F 79% 30.38 in 10.0 mi NNE 8.1 mph - N/A   Overcast
9:52 AM 32.0 °F 25.6 °F 25.0 °F 75% 30.38 in 10.0 mi North 6.9 mph - N/A   Overcast
10:52 AM 32.0 °F 26.4 °F 25.0 °F 75% 30.38 in 10.0 mi NNE 5.8 mph - N/A   Overcast
11:40 AM 30.2 °F 24.3 °F 24.8 °F 80% 30.31 in 10.0 mi ESE 5.8 mph - N/A   Mostly Cloudy
11:52 AM 30.0 °F 23.2 °F 25.0 °F 82% 30.35 in 10.0 mi East 6.9 mph - N/A   Mostly Cloudy
12:52 PM 28.9 °F 22.8 °F 24.1 °F 82% 30.34 in 8.0 mi SE 5.8 mph - N/A   Partly Cloudy
12:59 PM 28.4 °F 21.2 °F 24.8 °F 86% 30.29 in 6.0 mi ESE 6.9 mph - N/A   Haze
1:52 PM 27.0 °F 18.0 °F 21.9 °F 81% 30.32 in 9.0 mi SE 9.2 mph - N/A   Mostly Cloudy
2:18 PM 26.6 °F 17.5 °F 21.2 °F 80% 30.28 in 8.0 mi SE 9.2 mph - N/A   Overcast
2:41 PM 26.6 °F 18.2 °F 23.0 °F 86% 30.28 in 5.0 mi SE 8.1 mph - N/A   Overcast
2:52 PM 27.0 °F 20.5 °F 24.1 °F 89% 30.33 in 9.0 mi SE 5.8 mph - N/A   Overcast
3:06 PM 26.6 °F 22.6 °F 24.8 °F 93% 30.28 in 5.0 mi ESE 3.5 mph - N/A   Overcast
3:26 PM 26.6 °F - 24.8 °F 93% 30.29 in 5.0 mi Calm Calm - N/A   Overcast
3:52 PM 28.0 °F - 23.0 °F 81% 30.32 in 6.0 mi Calm Calm - N/A   Haze
4:45 PM 28.4 °F - 24.8 °F 86% 30.27 in 1.0 mi Calm Calm - 0.00 in Snow Light Snow
4:52 PM 28.0 °F - 24.1 °F 85% 30.32 in 1.0 mi Calm Calm - 0.00 in Snow Light Snow
5:52 PM 28.0 °F - 25.0 °F 88% 30.31 in 2.0 mi Calm Calm - 0.00 in Snow Light Snow
6:21 PM 28.4 °F - 24.8 °F 86% 30.26 in 2.0 mi Calm Calm - 0.01 in Snow Light Snow
6:32 PM 28.4 °F - 24.8 °F 86% 30.26 in 2.0 mi Calm Calm - 0.01 in Snow Light Snow
6:52 PM 28.0 °F - 25.0 °F 88% 30.31 in 2.0 mi Calm Calm - 0.01 in Snow Light Snow
7:52 PM 28.0 °F - 25.0 °F 88% 30.29 in 2.0 mi Calm Calm - 0.00 in Snow Light Snow
8:18 PM 28.4 °F - 26.6 °F 93% 30.25 in 2.0 mi Calm Calm - 0.01 in Snow Light Snow
8:52 PM 28.0 °F - 26.1 °F 92% 30.28 in 2.0 mi Calm Calm - 0.01 in Snow Light Snow
9:00 PM 28.4 °F - 26.6 °F 93% 30.24 in 2.0 mi Calm Calm - 0.00 in   Overcast
9:15 PM 28.4 °F 24.6 °F 26.6 °F 93% 30.24 in 3.0 mi SSE 3.5 mph - 0.00 in   Overcast
9:52 PM 28.9 °F 22.8 °F 25.0 °F 85% 30.27 in 4.0 mi SSE 5.8 mph - 0.00 in   Overcast
10:52 PM 28.9 °F 21.9 °F 26.1 °F 89% 30.26 in 4.0 mi South 6.9 mph - N/A   Overcast
11:52 PM 28.0 °F 20.0 °F 25.0 °F 88% 30.24 in 5.0 mi South 8.1 mph - N/A   Overcast